Regional Weather Roundup
Issued by NWS

Home | Current Version | Previous Version | Graphics & Text | Print | Product List | Glossary On
Versions: 1 2 3 4 5 6 7 8 9 10 11 12 13 14 15 16 17 18 19 20 21 22 23 24 25 26 27 28 29 30 31 32 33 34 35 36 37 38 39 40 41 42 43 44 45 46 47 48 49
000
ASUS45 KBOU 311807
RWRCO

WEATHER ROUNDUP FOR COLORADO
NATIONAL WEATHER SERVICE DENVER/BOULDER CO
1200 PM MDT THU JUL 31 2014

NOTE: "FAIR" INDICATES FEW OR NO CLOUDS BELOW 12000 FEET WITH NO
SIGNIFICANT WEATHER AND/OR OBSTRUCTIONS TO VISIBILITY.

COZ001>005-013-030-031-311900-
...NORTHWEST COLORADO...

CITY           SKY/WX    TMP DP  RH WIND       PRES   REMARKS
CRAIG          MOSUNNY   66  51  58 CALM      30.30F
HAYDEN         MOSUNNY   70  50  49 CALM      30.32S
MEEKER         MOSUNNY   71  52  50 VRB7      30.30F
MOUNT WERNER   NOT AVBL
STEAMBOAT SPGS MOSUNNY   67  51  55 N3        30.32F
WALDEN         SUNNY     63  43  48 SE5       30.41F
$$

COZ006>008-011-311900-
...WEST CENTRAL VALLEYS...

CITY           SKY/WX    TMP DP  RH WIND       PRES   REMARKS
GRAND JUNCTION SUNNY     77  56  48 CALM      30.19F
MONTROSE       MOSUNNY   77  55  46 VRB3      30.25F
EAGLE          PTSUNNY   68  54  60 CALM      30.32F
RIFLE          MOSUNNY   75  52  44 CALM      30.23F
DELTA          MOSUNNY   81  55  41 S6        30.21F
NUCLA          MOSUNNY   77  48  36 CALM      30.29F
$$

COZ017>023-064>068-311900-
...SOUTHWEST COLORADO...

CITY           SKY/WX    TMP DP  RH WIND       PRES   REMARKS
DURANGO        MOSUNNY   76  54  46 E5        30.31F
CORTEZ         MOSUNNY   82  51  34 W8        30.24F
PAGOSA SPRINGS PTSUNNY   72  50  46 SW7       30.39F
TELLURIDE      MOSUNNY   66  46  48 W10G16    30.45F THUNDER
WOLF CREEK PAS NOT AVBL
$$

COZ009-010-012-014-032>034-037-058>063-311900-
...CENTRAL COLORADO...

CITY           SKY/WX    TMP DP  RH WIND       PRES   REMARKS
ASPEN          MOSUNNY   69  52  54 N5G17     30.35F
BUENA VISTA    CLOUDY    63  50  63 SE5       30.41S
COPPER MTN     PTSUNNY   54  45  71 W10       30.64S
BERTHOUD PASS  FOG       37  36  93 SE8       30.69S VSB<1/4
COTTONWOOD PAS CLOUDY    55  52  88 SE6       30.52S
GUNNISON       PTSUNNY   68  50  52 N6        30.37F
KREMMLING      MOSUNNY   70  50  49 SE8       30.38F
LEADVILLE      LGT RAIN  56  47  71 CALM      30.48F
MONARCH PASS   PTSUNNY   54  41  62 SW17      30.74S
SALIDA         CLOUDY    64  53  69 SE8       30.45F
SUNLIGHT       CLOUDY    55  50  82 NW5       30.59S
WILKERSON PASS DRZL/FOG  45  45 100 SE7       30.64S VSB<1/4
$$

COZ069>075-311900-
...SAN LUIS VALLEY/SANGRE DE CRISTO MOUNTAINS...

CITY           SKY/WX    TMP DP  RH WIND       PRES   REMARKS
ALAMOSA        PTSUNNY   68  54  60 SE5       30.36F
LA VETA PASS   FOG       54  52  94 CALM      30.56S VSB<1/4
SAGUACHE       PTSUNNY   64  52  63 SE7       30.40F
$$

COZ035-036-038>040-311900-
...NORTHERN COLORADO FRONT RANGE...

CITY           SKY/WX    TMP DP  RH WIND       PRES   REMARKS
DENVER INTL AP CLOUDY    67  53  61 S5        30.32S
DMNS CITY PARK   N/A     70  53  55 S6        30.32S
AURORA         PTSUNNY   66  54  65 CALM      30.34S
FRONT RANGE AP NOT AVBL
ERIE MUNI ARPT CLOUDY    70  50  50 W3        30.31S
BOULDER MUN AP CLOUDY    70  50  49 SE3       30.31S
CENTENNIAL     CLOUDY    62  56  80 NW7       30.34S
BROOMFIELD     CLOUDY    66  55  68 S3        30.34S
FORT COLLINS   MOSUNNY   73  55  53 S7        30.29F
LONGMONT       CLOUDY    74  55  50 CALM      30.31F
$$

COZ041-046-047-076>085-087-088-311900-
...PIKES PEAK/PALMER DIVIDE AND SOUTHERN FOOTHILLS...

CITY           SKY/WX    TMP DP  RH WIND       PRES   REMARKS
COLO. SPRINGS  LGT RAIN  58  55  90 SE7       30.38S
A. F. ACADEMY  DRIZZLE   57  57 100 S5        30.38F
ELLICOTT       CLOUDY    59  53  80 CALM      30.36S
FALCON         CLOUDY    55  54  97 SE5       30.42R FOG
FORT CARSON    CLOUDY    59  56  92 E5        30.36S
LIMON          PTSUNNY   67  51  56 CALM      30.33R
MONUMENT HILL  CLOUDY    55  52  88 CALM      30.40S
TRINIDAD       CLOUDY    67  54  63 VRB3      30.32F
$$

COZ042>045-048>051-090-091-311900-
...NORTHEAST COLORADO...

CITY           SKY/WX    TMP DP  RH WIND       PRES   REMARKS
GREELEY ARPT   NOT AVBL
AKRON          SUNNY     74  52  46 SW10      30.27F
BURLINGTON     MOSUNNY   76  49  38 VRB3      30.25F
WRAY             N/A     82  49  31 SW9       30.22S
STERLING       SUNNY     81  55  41 NW3       30.21F
HOLYOKE        SUNNY     81  50  34 SW3       30.20F
FORT MORGAN    SUNNY     76  54  46 S3        30.27F
$$

COZ086-089-092>099-311900-
...SOUTHEAST COLORADO...

CITY           SKY/WX    TMP DP  RH WIND       PRES   REMARKS
PUEBLO         CLOUDY    66  58  75 E9        30.30S
LA JUNTA       CLOUDY    69  54  58 VRB6      30.28S
LAMAR          MOSUNNY   73  56  54 SW5       30.24F
SPRINGFIELD      N/A     70  51  51 S3        30.27F
$$


USA.gov is the U.S. government's official web portal to all federal, state and local government web resources and services.